SCP
0 0 0 0 0 0 0 1 1 1 1 1 2 1 1 0 0 0 0 -0 -0 -0 -0 0 0 0 0 0 0 0 0 0
0 0 0 0 0 0 0 0 1 0 2 1 1 1 1 0 0 0 0 0 0 -0 0 0 0 0 0 0 0 0 0 0
0 0 0 0 0 0 1 1 0 0 2 1 0 0 0 0 0 0 0 0 0 0 0 0 0 0 0 0 0 0 0 0
0 0 0 0 0 0 1 1 1 1 2 1 0 0 0 0 0 0 0 0 0 0 0 0 0 0 0 0 0 0 0 0
0 0 0 0 0 1 1 3 2 1 3 2 2 1 1 0 0 0 0 1 0 0 0 0 0 0 0 0 0 0 0 0
0 0 0 0 0 0 1 3 5 2 3 4 3 3 1 1 1 1 0 0 1 1 1 1 0 0 0 0 0 0 0 0
0 0 0 0 0 0 0 1 5 4 4 5 5 4 4 2 2 2 1 1 1 2 1 1 0 0 0 0 0 0 0 0
0 0 0 0 0 0 0 1 2 5 5 5 6 6 6 4 2 3 3 2 2 2 2 1 1 0 0 0 0 0 0 0
0 0 0 0 0 0 0 0 5 3 6 4 3 4 5 3 2 2 2 3 3 2 2 2 2 1 0 0 0 0 0 1
0 0 0 0 0 0 0 0 1 3 2 5 3 2 3 2 2 2 1 2 2 3 3 2 1 1 0 0 0 0 0 1
0 0 0 0 0 0 0 0 0 0 1 2 2 2 2 2 2 3 3 1 1 2 3 3 2 1 1 1 1 0 0 1
0 0 0 0 0 0 0 0 0 0 0 1 3 1 1 1 2 1 2 1 2 1 1 3 3 2 1 1 1 0 1 1
0 0 0 0 0 0 0 0 0 0 0 0 0 1 2 3 3 1 2 2 0 1 1 3 2 1 1 1 0 0 1 1
0 0 0 0 0 0 0 0 0 0 0 0 0 0 1 1 1 1 2 3 2 1 1 0 1 2 1 1 1 1 1 1
0 0 0 0 0 0 0 0 0 0 0 0 0 0 0 0 1 1 1 0 1 1 1 1 2 1 1 0 0 -0 1 1
0 0 0 0 0 0 0 0 0 0 0 0 0 0 0 0 0 0 0 0 1 1 0 0 0 0 2 1 -1 -1 -0 0
0 0 0 0 0 0 0 0 0 0 0 0 0 0 0 0 0 0 0 0 0 0 1 0 0 0 1 0 -0 0 0 0
0 0 0 0 0 0 0 0 0 0 0 0 0 0 0 0 0 0 0 0 0 0 0 1 1 1 1 0 0 0 1 1
0 0 0 0 0 0 0 0 0 0 0 0 0 0 0 0 0 0 0 0 0 0 0 0 0 1 2 1 1 1 2 2
0 0 0 0 0 0 0 0 0 0 0 0 0 0 0 0 0 0 0 0 0 0 0 0 0 1 2 3 3 3 3 3
Wind_Speed_500mb
18 23 9 23 8 27 42 38 48 68 69 66 67 66 62 56 51 46 43 39 34 31 28 26 23 23 23 25 24 25 25 21
13 21 19 10 16 9 38 41 32 65 67 57 60 64 62 58 54 49 47 43 39 36 32 25 22 17 12 21 21 20 21 16
19 19 27 22 10 16 21 50 44 52 68 52 38 52 60 58 55 52 50 48 45 40 33 25 23 21 16 16 16 15 16 17
13 29 27 33 20 6 20 49 40 50 56 44 42 36 36 56 57 56 53 52 49 46 40 33 31 27 25 23 23 23 26 26
35 19 33 30 32 36 32 45 48 44 55 36 37 43 36 30 48 52 54 53 53 49 47 42 37 35 33 30 32 30 32 36
37 20 40 41 35 43 34 41 58 50 49 60 41 42 45 34 31 37 42 47 44 50 51 47 39 39 44 46 47 45 44 46
31 32 45 53 52 42 36 31 52 56 53 49 60 52 52 42 38 41 43 44 45 44 47 50 47 46 42 41 44 43 43 39
22 37 48 48 47 44 41 39 46 60 48 45 54 64 67 63 56 52 59 49 48 50 51 49 53 55 51 45 48 42 38 39
27 40 49 45 40 43 35 37 47 57 67 52 41 62 68 67 72 61 70 59 55 57 60 52 53 56 60 53 55 53 52 44
37 34 39 33 30 30 31 32 40 58 60 71 69 52 44 70 80 82 72 62 55 62 65 60 59 61 62 61 58 62 69 55
57 46 36 33 28 28 26 25 34 41 53 60 63 57 62 60 50 66 67 65 41 66 72 66 57 68 67 67 68 66 71 65
66 72 52 43 32 24 30 25 33 36 42 53 67 78 48 65 83 58 64 70 62 65 65 68 60 64 63 67 69 68 68 79
51 61 42 25 23 20 17 29 28 28 40 46 45 46 50 47 57 69 62 87 92 84 83 73 76 73 71 63 79 70 84 83
36 33 31 28 24 26 26 27 23 26 30 37 40 43 43 45 51 54 64 63 84 78 80 88 83 74 68 75 73 86 98 90
53 45 35 21 23 23 27 27 20 15 17 24 28 34 37 39 41 57 58 64 72 80 84 77 91 92 83 86 81 115 110 94
44 38 28 31 32 31 28 17 18 17 21 22 27 30 33 34 37 42 48 44 47 59 62 69 76 93 107 86 94 113 99 91
52 50 50 37 35 40 35 33 33 38 30 29 29 26 31 31 34 41 43 42 42 37 35 45 55 43 38 39 117 132 104 94
37 44 34 35 31 40 36 33 30 26 28 32 30 38 39 31 32 40 44 46 50 52 54 51 38 44 53 68 94 88 72 75
22 24 25 19 12 35 39 38 36 34 33 31 33 33 31 34 41 42 46 45 45 52 56 58 63 63 58 65 74 76 78 73
29 50 50 47 35 28 29 25 21 19 15 21 34 38 44 54 50 48 49 51 53 50 54 63 65 61 58 66 67 72 78 74
Wind_Direction_500mb
184 225 319 11 77 208 196 194 202 199 194 192 192 197 200 202 201 202 203 205 205 213 219 231 238 251 264 272 279 289 296 302
176 205 226 293 330 250 217 199 191 203 204 197 203 201 205 207 209 206 210 212 216 219 227 231 240 261 280 283 278 292 280 290
226 218 231 236 295 250 239 206 190 197 210 202 209 215 213 214 216 215 215 218 222 228 234 242 247 250 263 287 289 300 293 290
235 240 242 242 221 249 222 204 202 187 193 201 209 212 223 223 219 223 222 226 227 229 236 243 250 252 262 276 294 291 295 303
234 246 237 232 219 223 204 204 199 187 192 188 207 204 213 219 227 224 228 232 234 235 236 238 245 253 260 267 267 274 282 289
229 246 233 226 211 205 213 195 199 198 204 206 202 213 209 212 233 233 233 234 239 238 238 243 241 242 239 245 251 258 267 275
213 234 227 222 217 213 219 202 203 200 203 211 216 205 200 205 207 233 243 241 241 245 247 250 251 249 247 249 250 253 257 262
201 227 217 221 222 221 229 220 215 218 213 224 220 213 204 203 207 210 227 233 236 244 251 253 254 253 252 251 258 263 268 271
227 225 209 209 217 228 237 228 212 222 222 211 213 218 212 211 214 210 216 228 241 245 254 253 254 253 250 249 258 259 259 274
211 185 192 193 201 216 226 225 224 220 226 226 232 220 222 227 226 219 224 227 238 249 257 257 255 260 253 253 251 258 260 262
199 192 188 185 191 211 223 229 231 226 227 235 231 229 232 232 226 225 230 243 238 260 257 258 261 254 250 256 263 262 267 268
205 207 181 166 171 190 238 260 242 238 229 223 230 232 233 243 237 243 237 263 267 253 258 262 265 268 261 270 271 264 260 262
199 180 176 184 186 197 228 251 263 243 236 232 226 236 232 233 237 251 259 250 262 269 268 267 267 268 271 272 271 274 263 263
153 160 174 177 179 207 238 251 256 246 239 239 247 245 247 238 242 252 253 248 247 256 264 267 260 260 269 275 284 278 268 263
144 145 151 173 178 197 219 224 259 243 264 258 251 251 253 254 242 243 239 242 244 245 254 258 256 255 256 266 258 274 270 260
174 190 187 181 189 202 190 185 218 242 266 266 275 267 259 263 261 256 252 249 247 254 250 253 258 258 255 264 266 271 269 267
177 184 172 181 196 203 213 221 238 248 250 259 268 273 275 275 266 264 266 260 253 247 256 255 248 246 261 246 232 249 260 261
179 169 184 189 209 232 221 221 225 258 249 255 265 256 265 269 271 274 272 264 259 252 253 258 264 263 255 230 236 246 256 259
219 195 188 193 223 230 224 235 245 246 243 255 263 264 257 264 272 272 277 282 276 263 254 255 255 250 253 252 249 252 249 258
270 223 227 223 225 221 217 220 209 221 245 260 261 267 268 275 277 269 270 278 281 279 272 260 254 257 252 249 248 249 253 258
Wind_Speed_850mb
18 23 9 23 8 27 42 38 48 68 69 66 67 66 62 56 51 46 43 39 34 31 28 26 23 23 23 25 24 25 25 21
13 21 19 10 16 9 38 41 32 65 67 57 60 64 62 58 54 49 47 43 39 36 32 25 22 17 12 21 21 20 21 16
19 19 27 22 10 16 21 50 44 52 68 52 38 52 60 58 55 52 50 48 45 40 33 25 23 21 16 16 16 15 16 17
13 29 27 33 20 6 20 49 40 50 56 44 42 36 36 56 57 56 53 52 49 46 40 33 31 27 25 23 23 23 26 26
35 19 33 30 32 36 32 45 48 44 55 36 37 43 36 30 48 52 54 53 53 49 47 42 37 35 33 30 32 30 32 36
37 20 40 41 35 43 34 41 58 50 49 60 41 42 45 34 31 37 42 47 44 50 51 47 39 39 44 46 47 45 44 46
31 32 45 53 52 42 36 31 52 56 53 49 60 52 52 42 38 41 43 44 45 44 47 50 47 46 42 41 44 43 43 39
22 37 48 48 47 44 41 39 46 60 48 45 54 64 67 63 56 52 59 49 48 50 51 49 53 55 51 45 48 42 38 39
27 40 49 45 40 43 35 37 47 57 67 52 41 62 68 67 72 61 70 59 55 57 60 52 53 56 60 53 55 53 52 44
37 34 39 33 30 30 31 32 40 58 60 71 69 52 44 70 80 82 72 62 55 62 65 60 59 61 62 61 58 62 69 55
57 46 36 33 28 28 26 25 34 41 53 60 63 57 62 60 50 66 67 65 41 66 72 66 57 68 67 67 68 66 71 65
66 72 52 43 32 24 30 25 33 36 42 53 67 78 48 65 83 58 64 70 62 65 65 68 60 64 63 67 69 68 68 79
51 61 42 25 23 20 17 29 28 28 40 46 45 46 50 47 57 69 62 87 92 84 83 73 76 73 71 63 79 70 84 83
36 33 31 28 24 26 26 27 23 26 30 37 40 43 43 45 51 54 64 63 84 78 80 88 83 74 68 75 73 86 98 90
53 45 35 21 23 23 27 27 20 15 17 24 28 34 37 39 41 57 58 64 72 80 84 77 91 92 83 86 81 115 110 94
44 38 28 31 32 31 28 17 18 17 21 22 27 30 33 34 37 42 48 44 47 59 62 69 76 93 107 86 94 113 99 91
52 50 50 37 35 40 35 33 33 38 30 29 29 26 31 31 34 41 43 42 42 37 35 45 55 43 38 39 117 132 104 94
37 44 34 35 31 40 36 33 30 26 28 32 30 38 39 31 32 40 44 46 50 52 54 51 38 44 53 68 94 88 72 75
22 24 25 19 12 35 39 38 36 34 33 31 33 33 31 34 41 42 46 45 45 52 56 58 63 63 58 65 74 76 78 73
29 50 50 47 35 28 29 25 21 19 15 21 34 38 44 54 50 48 49 51 53 50 54 63 65 61 58 66 67 72 78 74
Wind_Direction_850mb
184 225 319 11 77 208 196 194 202 199 194 192 192 197 200 202 201 202 203 205 205 213 219 231 238 251 264 272 279 289 296 302
176 205 226 293 330 250 217 199 191 203 204 197 203 201 205 207 209 206 210 212 216 219 227 231 240 261 280 283 278 292 280 290
226 218 231 236 295 250 239 206 190 197 210 202 209 215 213 214 216 215 215 218 222 228 234 242 247 250 263 287 289 300 293 290
235 240 242 242 221 249 222 204 202 187 193 201 209 212 223 223 219 223 222 226 227 229 236 243 250 252 262 276 294 291 295 303
234 246 237 232 219 223 204 204 199 187 192 188 207 204 213 219 227 224 228 232 234 235 236 238 245 253 260 267 267 274 282 289
229 246 233 226 211 205 213 195 199 198 204 206 202 213 209 212 233 233 233 234 239 238 238 243 241 242 239 245 251 258 267 275
213 234 227 222 217 213 219 202 203 200 203 211 216 205 200 205 207 233 243 241 241 245 247 250 251 249 247 249 250 253 257 262
201 227 217 221 222 221 229 220 215 218 213 224 220 213 204 203 207 210 227 233 236 244 251 253 254 253 252 251 258 263 268 271
227 225 209 209 217 228 237 228 212 222 222 211 213 218 212 211 214 210 216 228 241 245 254 253 254 253 250 249 258 259 259 274
211 185 192 193 201 216 226 225 224 220 226 226 232 220 222 227 226 219 224 227 238 249 257 257 255 260 253 253 251 258 260 262
199 192 188 185 191 211 223 229 231 226 227 235 231 229 232 232 226 225 230 243 238 260 257 258 261 254 250 256 263 262 267 268
205 207 181 166 171 190 238 260 242 238 229 223 230 232 233 243 237 243 237 263 267 253 258 262 265 268 261 270 271 264 260 262
199 180 176 184 186 197 228 251 263 243 236 232 226 236 232 233 237 251 259 250 262 269 268 267 267 268 271 272 271 274 263 263
153 160 174 177 179 207 238 251 256 246 239 239 247 245 247 238 242 252 253 248 247 256 264 267 260 260 269 275 284 278 268 263
144 145 151 173 178 197 219 224 259 243 264 258 251 251 253 254 242 243 239 242 244 245 254 258 256 255 256 266 258 274 270 260
174 190 187 181 189 202 190 185 218 242 266 266 275 267 259 263 261 256 252 249 247 254 250 253 258 258 255 264 266 271 269 267
177 184 172 181 196 203 213 221 238 248 250 259 268 273 275 275 266 264 266 260 253 247 256 255 248 246 261 246 232 249 260 261
179 169 184 189 209 232 221 221 225 258 249 255 265 256 265 269 271 274 272 264 259 252 253 258 264 263 255 230 236 246 256 259
219 195 188 193 223 230 224 235 245 246 243 255 263 264 257 264 272 272 277 282 276 263 254 255 255 250 253 252 249 252 249 258
270 223 227 223 225 221 217 220 209 221 245 260 261 267 268 275 277 269 270 278 281 279 272 260 254 257 252 249 248 249 253 258